sat.trackr.live / text

‹ back to catalog

STARLINK-5282

NORAD 54169 · 2022-141N

PAYLOAD ACTIVE UNKNOWN

§ Identity

Operator
Country
US
Launch date
2022-10-28
Launch site
AFWTR
Launch vehicle
Mass (kg)
RCS (m²)

Purposes: comms

External: N2YO · Heavens-Above · Gunter

§ Orbital elements

Epoch: 2026-09-20T12:32:06.172224Z

Period
93.85 min
Inclination
53.1588°
Eccentricity
0.0001239
Mean motion
15.34387085 rev/d
Perigee alt
461.9 km
Apogee alt
463.6 km
Semi-major
6,840.9 km
B*
1.5508e-5
RAAN
193.8864°
Arg perigee
94.2922°
Mean anomaly
265.8223°
Rev number
21,548

§ Raw data

STARLINK-52821 54169U 22141N   26263.52229366  .00000148  00000+0  15508-4 0  99942 54169  53.1588 193.8864 0001239  94.2922 265.8223 15.34387085215481

JSON: /api/v1/satellites/54169 · /tle

For live sub-satellite position, see the globe view (requires WebGL).

§ Visibility from observer

Set your observer location to see the next 7 days of passes ≥ 10°. The values pass through the URL so the page stays shareable.

No JS? Fill the form by hand. The geolocation button needs JavaScript.